Station DULM5 - 9099064 - Duluth, MN Image indicating link to RSS feed of recent meteorological observations for station DULM5


Conditions at DULM5 as of
(1:48 pm CDT)
1848 GMT on 07/24/2024:
     

Click on the graph icon in the table below to see a time series plot of the last five days of that observation.

5-day plot - Wind Direction Wind Direction (WDIR):ENE ( 60 deg true )
5-day plot - Wind Speed Wind Speed (WSPD): 2.9 kts
5-day plot - Wind Gust Wind Gust (GST): 5.1 kts
5-day plot - Atmospheric Pressure Atmospheric Pressure (PRES):30.17 in
5-day plot - Air Temperature Air Temperature (ATMP): 71.8 °F
5-day plot - Water Temperature Water Temperature (WTMP): 65.3 °F
5-day plot - Dew Point Dew Point (DEWP): 57.2 °F
5-day plot - Wind Speed at 10 Meters Wind Speed at 10 meters (WSPD10M): 1.9 kts
5-day plot - Wind Speed at 20 Meters Wind Speed at 20 meters (WSPD20M): 3.9 kts
5-day plot -  Wind Speed, Wind Gust and Atmospheric Pressure Combined plot of Wind Speed, Gust, and Air Pressure
NOS Water Level Observation Network Water Level
Previous observations
TIME
(CDT)
5-day plot - Wind Direction
WDIR
 
5-day plot - Wind Speed
WSPD
kts
5-day plot - Wind Gust
GST
kts
5-day plot - Wave Height
WVHT
ft
5-day plot - Dominant Wave Period
DPD
sec
5-day plot - Average Wave Period
APD
sec
5-day plot - Mean Wave Direction
MWD
 
5-day plot - Atmospheric Pressure
PRES
in
5-day plot - Pressure Tendency
PTDY
in
5-day plot - Air Temperature
ATMP
°F
5-day plot - Water Temperature
WTMP
°F
5-day plot - Dew Point
DEWP
°F
5-day plot - Salinity
SAL
psu
5-day plot - Visibility
VIS
nmi
5-day plot - Tide (above MLLW)
TIDE
ft
2024-07-24 01:42 pm NE 2.9 6.0----30.17- 71.2 65.3 56.8---
2024-07-24 01:36 pm NE 4.1 6.0----30.17- 70.7 65.3 56.8---
2024-07-24 01:30 pmENE 4.1 5.1----30.17- 70.9 65.3 56.5---
2024-07-24 01:24 pm NE 2.9 5.1----30.17- 70.0 65.3 57.0---
2024-07-24 01:18 pm NE 2.9 4.1----30.17- 70.9 65.3 57.9---
2024-07-24 01:12 pm NE 2.9 5.1----30.18- 70.7 65.3 57.7---
2024-07-24 01:06 pm NE 1.9 5.1----30.18- 69.8 65.3 57.2---
2024-07-24 01:00 pm NE 2.9 6.0----30.18+0.00 68.9 65.3 57.2---
2024-07-24 12:54 pm NE 4.1 7.0----30.18- 69.3 65.3 57.6---
2024-07-24 12:48 pm NE 4.1 7.0----30.18- 69.8 65.3 57.6---
2024-07-24 12:42 pm NE 2.9 5.1----30.18- 69.6 65.3 57.7---
2024-07-24 12:36 pm NE 2.9 6.0----30.18- 69.3 65.3 57.6---
2024-07-24 12:30 pm NE 4.1 6.0----30.18- 68.5 65.3 57.6---
2024-07-24 12:24 pmNNE 2.9 6.0----30.18- 67.6 65.3 57.4---
2024-07-24 12:18 pm NE 4.1 7.0----30.18- 68.5 65.3 57.4---
2024-07-24 12:12 pm NE 2.9 7.0----30.18- 68.5 65.3 57.7---
2024-07-24 12:06 pmENE 4.1 6.0----30.18- 68.0 65.3 57.4---
2024-07-24 12:00 pm NE 2.9 5.1----30.18+0.00 68.4 65.3 57.0---
2024-07-24 11:54 am NE 4.1 6.0----30.18- 68.7 65.3 57.9---
2024-07-24 11:48 amENE 2.9 5.1----30.18-- 65.3----
2024-07-24 11:42 amENE 4.1 7.0----30.18-- 65.3----
2024-07-24 11:36 amENE 2.9 6.0----30.18-- 65.5----
2024-07-24 11:30 am NE 5.1 8.0----30.18- 67.1 65.5 56.8---
2024-07-24 11:24 am E 1.9 6.0----30.18- 67.6 65.5 57.9---
2024-07-24 11:18 am E 1.9 5.1----30.18- 68.5 65.5 57.9---
2024-07-24 11:12 amENE 1.9 5.1----30.18- 68.0 65.5 58.1---
2024-07-24 11:06 am NE 2.9 6.0----30.18- 66.9 65.5 57.6---
2024-07-24 11:00 am E 5.1 6.0----30.18+0.01 66.6 65.5 57.6---
2024-07-24 10:54 am NE 4.1 5.1----30.18- 66.4 65.5 56.8---
2024-07-24 10:48 amENE 4.1 6.0----30.18-- 65.5----
2024-07-24 10:42 amENE 2.9 6.0----30.18-- 65.5----
2024-07-24 10:36 amENE 4.1 6.0----30.18-- 65.5----
2024-07-24 10:30 am NE 5.1 6.0----30.18- 66.2 65.5 57.0---
2024-07-24 10:24 amENE 2.9 7.0----30.18- 66.4 65.5 57.4---
2024-07-24 10:18 amENE 4.1 6.0----30.18- 66.0 65.5 57.2---
2024-07-24 10:12 amENE 1.9 6.0----30.18- 65.5 65.5 57.4---
2024-07-24 10:06 amENE 1.9 6.0----30.18- 65.5 65.5 57.4---
2024-07-24 10:00 am NE 2.9 5.1----30.18+0.03 65.7 65.5 57.4---
2024-07-24 09:54 am NE 4.1 6.0----30.18- 65.8 65.5 57.4---
2024-07-24 09:48 am NE 5.1 8.0----30.18- 65.8 65.5----
2024-07-24 09:30 amENE 2.9 6.0----30.18- 65.3 65.5 57.2---
2024-07-24 09:24 amENE 4.1 6.0----30.18- 65.3 65.5 57.4---
2024-07-24 09:18 am NE 2.9 6.0----30.18- 64.9 65.5 57.2---
2024-07-24 09:12 am NE 2.9 6.0----30.18- 64.9 65.5 57.2---
2024-07-24 09:06 amENE 2.9 6.0----30.18- 64.8 65.5 57.0---
2024-07-24 09:00 amENE 1.9 6.0----30.18+0.03 64.8 65.5 57.4---
2024-07-24 08:54 am NE 2.9 5.1----30.18- 64.4 65.5 57.0---
2024-07-24 08:48 am NE 2.9 6.0----30.18-- 65.5----
2024-07-24 08:42 am NE 4.1 5.1----30.18-- 65.5----
2024-07-24 08:36 am NE 2.9 5.1----30.18-- 65.5----
2024-07-24 08:30 am NE 2.9 6.0----30.18- 64.0 65.5 57.2---
2024-07-24 08:24 am NE 2.9 6.0----30.18- 63.7 65.5 57.4---
2024-07-24 08:18 am NE 2.9 5.1----30.17- 63.3 65.5 57.2---
2024-07-24 08:12 am NE 4.1 6.0----30.17- 63.0 65.5 57.2---
2024-07-24 08:06 am NE 4.1 7.0----30.17- 62.8 65.5 57.2---
2024-07-24 08:00 am NE 2.9 6.0----30.17+0.03 62.2 65.5 56.8---
2024-07-24 07:54 am NE 1.9 5.1----30.17- 62.4 65.5 56.8---
2024-07-24 07:48 am NE 2.9 5.1----30.17- 62.1 65.5 56.7---
2024-07-24 07:42 am NE 1.9 5.1----30.17- 61.9 65.3 56.5---
2024-07-24 07:36 am NE 1.9 5.1----30.16- 62.1 65.3 56.7---
2024-07-24 07:30 am NE 1.9 5.1----30.16- 62.1 65.3 56.7---
2024-07-24 07:24 amNNE 2.9 7.0----30.16- 61.7 65.3 56.7---
2024-07-24 07:18 am NE 2.9 5.1----30.16- 61.5 65.3 56.5---
2024-07-24 07:12 am NE 2.9 6.0----30.16- 61.5 65.3 56.5---
2024-07-24 07:06 am NE 1.9 7.0----30.16- 61.2 65.3 56.1---
2024-07-24 07:00 am NE 2.9 6.0----30.15+0.04 61.0 65.3 55.8---
2024-07-24 06:54 amNNE 1.9 5.1----30.15- 60.8 65.3 55.4---
2024-07-24 06:48 amNNE 2.9 5.1----30.15- 60.6 65.3 55.2---
2024-07-24 06:42 amNNE 2.9 4.1----30.15- 60.6 65.3 55.0---
2024-07-24 06:36 am N 2.9 5.1----30.15- 60.4 65.3 54.7---
2024-07-24 06:30 am N 2.9 5.1----30.15- 60.4 65.3 54.7---
2024-07-24 06:24 am N 2.9 6.0----30.15- 60.3 65.3 54.5---
2024-07-24 06:18 am N 4.1 6.0----30.15- 60.1 65.3 54.1---
2024-07-24 06:12 am N 4.1 5.1----30.15- 60.1 65.3 54.1---
2024-07-24 06:06 am N 2.9 5.1----30.15- 60.1 65.3 54.0---
2024-07-24 06:00 am N 2.9 5.1----30.15+0.04 60.1 65.3 54.0---
2024-07-24 05:54 am N 2.9 7.0----30.15- 60.1 65.3 53.8---
2024-07-24 05:48 amNNE 4.1 6.0----30.14- 59.9 65.3 53.4---
2024-07-24 05:42 amNNE 2.9 5.1----30.14- 59.7 65.3 53.1---
2024-07-24 05:36 am N 2.9 5.1----30.14- 59.7 65.3 52.5---
2024-07-24 05:30 am N 2.9 5.1----30.14- 59.7 65.3 52.5---
2024-07-24 05:24 am N 4.1 5.1----30.14- 59.9 65.5 52.3---
2024-07-24 05:18 am N 2.9 5.1----30.14- 59.9 65.5 52.3---
2024-07-24 05:12 am N 4.1 5.1----30.14- 59.9 65.5 52.2---
2024-07-24 05:06 am N 2.9 5.1----30.14- 60.1 65.5 52.3---
2024-07-24 05:00 am N 2.9 5.1----30.14+0.03 60.4 65.5 52.7---
2024-07-24 04:54 am N 2.9 7.0----30.13- 60.4 65.5 52.9---
2024-07-24 04:48 am N 1.9 5.1----30.13- 60.3 65.5 52.7---
2024-07-24 04:42 am N 2.9 5.1----30.13- 60.3 65.5 52.3---
2024-07-24 04:36 am N 2.9 4.1----30.12- 60.3 65.5 52.3---
2024-07-24 04:30 am N 1.9 5.1----30.12- 60.4 65.5 52.5---
2024-07-24 04:24 amNNE 2.9 6.0----30.12- 60.4 65.5 52.3---
2024-07-24 04:18 am N 1.9 4.1----30.12- 60.4 65.5 52.3---
2024-07-24 04:12 am N 2.9 5.1----30.12- 60.4 65.5 52.5---
2024-07-24 04:06 amNNE 2.9 6.0----30.12- 60.3 65.5 52.2---
2024-07-24 04:00 am N 2.9 5.1----30.12+0.01 60.3 65.5 52.0---
2024-07-24 03:54 am N 4.1 6.0----30.11- 60.3 65.5 51.6---
2024-07-24 03:48 am N 2.9 5.1----30.11- 60.3 65.5 51.6---
2024-07-24 03:42 am N 2.9 5.1----30.11- 60.4 65.5 51.8---
2024-07-24 03:36 am N 2.9 5.1----30.11- 60.4 65.5 51.6---
2024-07-24 03:30 am N 2.9 5.1----30.11- 60.6 65.5 51.8---
2024-07-24 03:24 am N 4.1 6.0----30.11- 60.8 65.5 52.0---
2024-07-24 03:18 am N 2.9 5.1----30.11- 60.6 65.5 52.0---
2024-07-24 03:12 am N 1.9 5.1----30.11- 60.6 65.5 52.0---
2024-07-24 03:06 am N 2.9 5.1----30.11- 60.6 65.5 52.0---
2024-07-24 03:00 am N 2.9 5.1----30.11+0.00 60.6 65.5 52.2---
2024-07-24 02:54 am N 2.9 5.1----30.11- 60.8 65.5 52.2---
2024-07-24 02:48 am N 2.9 4.1----30.11- 60.8 65.5 52.5---
2024-07-24 02:42 am N 2.9 5.1----30.11- 60.6 65.5 52.3---
2024-07-24 02:36 am N 2.9 5.1----30.11- 60.6 65.5 52.3---
2024-07-24 02:30 am N 1.9 5.1----30.11- 60.8 65.5 52.7---
2024-07-24 02:24 am N 1.9 2.9----30.11- 60.8 65.5 53.1---
2024-07-24 02:18 am N 2.9 4.1----30.11- 61.0 65.5 53.6---
2024-07-24 02:12 am N 1.0 4.1----30.11- 61.2 65.5 54.0---
2024-07-24 02:06 amNNE 1.9 2.9----30.10- 61.3 65.5 54.1---
2024-07-24 02:00 am- 0.0 2.9----30.11+0.00 61.2 65.5 54.0---
2024-07-24 01:54 am NE 1.9 4.1----30.10- 61.2 65.5 53.8---
2024-07-24 01:48 am NE 1.9 4.1----30.10- 61.3 65.5 53.4---
2024-07-24 01:42 amNNE 1.9 2.9----30.11- 61.5 65.5 53.1---
2024-07-24 01:36 amNNE 1.0 2.9----30.11- 61.3 65.5 53.1---
2024-07-24 01:30 am N 1.9 4.1----30.10- 61.3 65.5 52.9---
2024-07-24 01:24 am N 1.9 2.9----30.11- 61.3 65.5 52.9---
2024-07-24 01:18 am N 2.9 5.1----30.11- 61.5 65.5 52.7---
2024-07-24 01:12 am N 2.9 5.1----30.11- 61.5 65.5 52.7---
2024-07-24 01:06 am N 2.9 5.1----30.11- 61.5 65.5 52.7---
2024-07-24 01:00 am N 2.9 4.1----30.11+0.00 61.5 65.5 52.9---
2024-07-24 12:54 am N 2.9 4.1----30.11- 61.7 65.5 53.1---
2024-07-24 12:48 am N 2.9 4.1----30.10- 61.7 65.5 53.1---
2024-07-24 12:42 am N 2.9 5.1----30.10- 62.1 65.5 53.2---
2024-07-24 12:36 amNNW 1.9 4.1----30.11- 62.4 65.5 53.4---
2024-07-24 12:30 am N 2.9 5.1----30.11- 62.6 65.5 53.8---
2024-07-24 12:24 am N 4.1 6.0----30.11- 62.6 65.5 53.8---
2024-07-24 12:18 am N 2.9 6.0----30.11- 62.6 65.5 54.1---
2024-07-24 12:12 am N 2.9 5.1----30.11- 62.6 65.5 54.5---
2024-07-24 12:06 am N 2.9 4.1----30.11- 62.6 65.7 54.5---
2024-07-24 12:00 amNNE 1.9 7.0----30.10+0.01 62.6 65.7 54.9---
2024-07-23 11:54 pmNNE 1.9 6.0----30.10- 62.8 65.7 55.0---
2024-07-23 11:48 pmNNE 2.9 5.1----30.11- 62.6 65.7 54.7---
2024-07-23 11:42 pmNNE 2.9 5.1----30.11- 62.6 65.7 54.7---
2024-07-23 11:36 pmNNE 2.9 6.0----30.11- 62.6 65.7 54.7---
2024-07-23 11:30 pmNNE 2.9 6.0----30.10- 62.6 65.7 54.9---
2024-07-23 11:24 pmNNE 2.9 5.1----30.11- 62.6 65.7 55.0---
2024-07-23 11:18 pm N 2.9 7.0----30.11- 62.6 65.7 55.0---
2024-07-23 11:12 pm N 4.1 6.0----30.11- 62.4 65.7 54.9---
2024-07-23 11:06 pm N 2.9 6.0----30.11- 62.4 65.7 55.2---
2024-07-23 11:00 pm-------30.11+0.02 62.2 65.7----
2024-07-23 10:54 pm-------30.11- 62.1 65.7----
2024-07-23 10:48 pm N 4.1 5.1----30.11- 62.1 65.7 55.0---
2024-07-23 10:42 pm N 2.9 6.0----30.11- 62.1 65.7 55.2---
2024-07-23 10:36 pm N 2.9 5.1----30.11- 61.9 65.7 55.0---
2024-07-23 10:30 pm N 2.9 6.0----30.10- 61.9 65.7 55.2---
2024-07-23 10:24 pm N 4.1 5.1----30.10- 62.1 65.7 55.4---
2024-07-23 10:18 pm N 2.9 6.0----30.10- 62.1 65.7 55.2---
2024-07-23 10:12 pm N 4.1 7.0----30.10- 62.2 65.7 55.4---
2024-07-23 10:06 pm N 4.1 5.1----30.10- 62.2 65.7 55.4---
2024-07-23 10:00 pm N 2.9 6.0----30.11+0.02 62.2 65.7 55.6---
2024-07-23 09:54 pmNNE 2.9 5.1----30.11- 62.4 65.7 55.6---
2024-07-23 09:48 pm N 2.9 8.0----30.10- 62.4 65.7 55.6---
2024-07-23 09:42 pm N 4.1 6.0----30.10- 62.4 65.7 55.6---
2024-07-23 09:36 pm N 4.1 6.0----30.10- 62.4 65.7 55.6---
2024-07-23 09:30 pmNNE 2.9 6.0----30.10- 62.6 65.7 55.9---
2024-07-23 09:24 pmNNE 2.9 6.0----30.10- 62.6 65.7 55.9---
2024-07-23 09:18 pmNNE 4.1 8.0----30.10- 62.6 65.7 55.8---
2024-07-23 09:12 pmNNE 2.9 7.0----30.09- 62.8 65.7 55.9---
2024-07-23 09:06 pmNNE 5.1 8.0----30.09- 62.8 65.7 55.6---
2024-07-23 09:00 pmNNE 2.9 7.0----30.09+0.02 63.0 65.7 55.8---
2024-07-23 08:54 pmNNE 2.9 9.9----30.09- 63.1 65.7 56.3---
2024-07-23 08:48 pmNNE 5.1 8.9----30.09- 63.1 65.7 56.1---
2024-07-23 08:42 pmNNE 7.0 9.9----30.09- 63.3 65.7 56.1---
2024-07-23 08:36 pm NE 2.9 9.9----30.09- 63.5 65.7 56.3---
2024-07-23 08:30 pmNNE 6.0 9.9----30.09- 63.5 65.7 55.9---
2024-07-23 08:24 pmNNE 5.1 9.9----30.09- 63.7 65.7 56.1---
2024-07-23 08:18 pmNNE 4.1 8.9----30.09- 63.9 65.7 55.9---
2024-07-23 08:12 pm NE 5.1 8.9----30.09- 64.0 65.7 55.9---
2024-07-23 08:06 pm NE 6.0 12.0----30.09- 64.2 65.7 56.3---
2024-07-23 08:00 pm NE 5.1 9.9----30.09+0.02 64.4 65.7 56.5---
2024-07-23 07:54 pm NE 5.1 11.1----30.09- 64.6 65.7 56.5---
2024-07-23 07:48 pm NE 5.1 8.9----30.09- 64.6 65.7 56.5---
2024-07-23 07:42 pmNNE 6.0 9.9----30.09- 64.4 65.7 56.5---
2024-07-23 07:36 pmNNE 5.1 9.9----30.09- 64.4 65.5 56.5---
2024-07-23 07:30 pmNNE 5.1 12.0----30.09- 64.4 65.5 57.0---
2024-07-23 07:24 pmNNE 5.1 11.1----30.09- 64.0 65.7 57.4---
2024-07-23 07:18 pm NE 7.0 9.9----30.09- 63.9 65.7 56.8---
2024-07-23 07:12 pmNNE 7.0 12.0----30.09- 63.9 65.7 57.0---
2024-07-23 07:06 pm NE 5.1 9.9----30.09- 64.0 65.7 57.2---
2024-07-23 07:00 pm NE 6.0 11.1----30.09+0.02 64.0 65.7 57.4---
2024-07-23 06:54 pm NE 5.1 8.9----30.09- 64.4 65.7 58.3---
2024-07-23 06:48 pm NE 6.0 11.1----30.09-- 65.7----
2024-07-23 06:42 pm NE 5.1 11.1----30.08-- 65.7----
2024-07-23 06:36 pm NE 6.0 11.1----30.08-- 65.7----
2024-07-23 06:30 pm NE 7.0 12.0----30.08- 64.2 65.7 57.9---
2024-07-23 06:24 pm NE 7.0 12.0----30.08- 64.4 65.7 57.9---
2024-07-23 06:18 pm NE 8.0 12.0----30.08- 64.6 65.7 57.9---
2024-07-23 06:12 pm NE 6.0 12.0----30.07- 64.8 65.7 58.1---
2024-07-23 06:06 pm NE 7.0 12.0----30.07- 64.8 65.7 57.9---
2024-07-23 06:00 pm NE 6.0 12.0----30.07+0.02------
2024-07-23 05:54 pm NE 6.0 11.1----30.07-------
2024-07-23 05:48 pm NE 6.0 11.1----30.07- 65.3 65.7 57.7---
2024-07-23 05:42 pm NE 5.1 12.0----30.07- 65.8 65.7 58.5---
2024-07-23 05:36 pm NE 7.0 11.1----30.07- 65.7 65.7 58.3---
2024-07-23 05:30 pm NE 7.0 11.1----30.07- 65.3 65.7 57.9---
2024-07-23 05:24 pm NE 7.0 12.0----30.07- 65.7 65.7 57.7---
2024-07-23 05:18 pm NE 6.0 12.0----30.07- 65.7 65.7 57.7---
2024-07-23 05:12 pm NE 5.1 12.0----30.07- 65.5 65.7 58.1---
2024-07-23 05:06 pm NE 8.0 13.0----30.07- 65.1 65.7 57.2---
2024-07-23 05:00 pm NE 8.0 14.0----30.07+0.02 65.8 65.7 57.6---
2024-07-23 04:54 pm NE 6.0 11.1----30.07- 65.7 65.7 57.7---
2024-07-23 04:48 pm NE 6.0 12.0----30.07- 65.7 65.7 57.6---
2024-07-23 04:42 pm NE 5.1 11.1----30.07- 65.7 65.7 57.7---
2024-07-23 04:36 pm NE 6.0 13.0----30.07- 65.3 65.7 57.4---
2024-07-23 04:30 pm NE 7.0 12.0----30.07-- 65.7----
2024-07-23 04:24 pm NE 7.0 12.0----30.07-- 65.7----
2024-07-23 04:18 pm NE 8.0 13.0----30.07- 65.5 65.7 57.2---
2024-07-23 04:12 pmENE 8.9 15.0----30.07- 65.3 65.7 57.0---
2024-07-23 04:06 pm NE 8.0 14.0----30.07- 65.7 65.7 57.6---
2024-07-23 04:00 pm NE 8.9 13.0----30.06+0.01 65.3 65.7 57.4---
2024-07-23 03:54 pm NE 8.9 13.0----30.06- 65.5 65.7 57.7---
2024-07-23 03:48 pm NE 8.9 15.9----30.06- 65.5 65.7 57.4---
2024-07-23 03:42 pm NE 8.9 15.9----30.06- 65.3 65.7 57.6---
2024-07-23 03:36 pm NE 9.9 14.0----30.06- 65.5 65.7 57.4---
2024-07-23 03:30 pm NE 8.9 17.1----30.06- 65.3 65.7 57.2---
2024-07-23 03:24 pm NE 8.9 17.1----30.06- 65.8 65.7 57.7---
2024-07-23 03:18 pm NE 9.9 15.0----30.06- 65.3 65.7 57.4---
2024-07-23 03:12 pm NE 9.9 18.1----30.05- 64.9 65.7 57.2---
2024-07-23 03:06 pm NE 9.9 15.9----30.05- 65.3 65.7 57.6---
2024-07-23 03:00 pm NE 8.9 17.1----30.05+0.00 65.8 65.7 57.9---
2024-07-23 02:54 pm NE 9.9 18.1----30.05- 65.5 65.7 57.6---
2024-07-23 02:48 pm NE 12.0 18.1----30.05- 65.7 65.7 57.7---
2024-07-23 02:42 pm NE 12.0 15.9----30.05- 65.8 65.7 57.4---
2024-07-23 02:36 pm NE 9.9 17.1----30.05- 65.7 65.7 57.4---
2024-07-23 02:30 pm NE 12.0 18.1----30.05- 65.5 65.7 57.4---
2024-07-23 02:24 pm NE 8.9 15.9----30.05- 66.4 65.7 58.3---
2024-07-23 02:18 pm NE 8.9 15.9----30.05- 65.8 65.7 57.7---
2024-07-23 02:12 pm NE 8.9 17.1----30.04- 66.4 65.7 58.3---
2024-07-23 02:06 pm NE 8.9 15.0----30.04- 66.2 65.7 58.5---
2024-07-23 02:00 pm NE 8.9 19.0----30.05+0.01 66.0 65.7 58.5---
2024-07-23 01:54 pm NE 8.9 15.9----30.05- 65.8 65.7 58.6---